Location: Allison Elementary School
(34.0784°N, 117.7317°W)
Time: 15:37:06
(UTC+00:00)

YAOGAN 6 - Pass Details

Date: 15 November 2019
Orbit: 467 x 504 km, 97.0° (Epoch: 14 December)

Event Time Altitude Azimuth Distance (km) Brightness Sun altitude
Rises 02:32:10 0° 183° (S) 2,511 6.3 -21.7°
Reaches altitude 10° 02:34:18 10° 191° (S) 1,632 5.4 -22.1°
Maximum altitude 02:37:37 39° 261° (W) 718 3.9 -22.8°
Drops below altitude 10° 02:40:55 10° 332° (NNW) 1,631 5.5 -23.5°
Sets 02:43:03 0° 340° (NNW) 2,510 6.3 -23.9°
